Satellite: NOAA-14
Catalog number: 23455
Epoch time:      05188.46171944
Element set:     658
Inclination:      099.0876 deg
RA of node:       237.1215 deg
Eccentricity:    0.0008468
Arg of perigee:   304.7282 deg
Mean anomaly:     055.3097 deg
Mean motion:   14.13579480 rev/day
Decay rate:       3.38e-06 rev/day^2
Epoch rev:           54236
Checksum:              328

Satellite: NOAA-12
Catalog number: 21263
Epoch time:      05188.46446894
Element set:     137
Inclination:      098.6998 deg
RA of node:       178.7218 deg
Eccentricity:    0.0012930
Arg of perigee:   015.0972 deg
Mean anomaly:     345.0603 deg
Mean motion:   14.25464418 rev/day
Decay rate:      -1.19e-06 rev/day^2
Epoch rev:           73513
Checksum:              318

Satellite: NOAA-10
Catalog number: 16969
Epoch time:      05188.51789212
Element set:     789
Inclination:      098.7617 deg
RA of node:       194.3282 deg
Eccentricity:    0.0013420
Arg of perigee:   076.0192 deg
Mean anomaly:     284.2466 deg
Mean motion:   14.27261271 rev/day
Decay rate:        2.7e-07 rev/day^2
Epoch rev:           97799
Checksum:              341

/EX
SB KEPS @ AMSAT  $ORB05188.M
Orbital Elements  05188.MISC

HR AMSAT ORBITAL ELEMENTS FOR MANNED AND MISCELLANEOUS SATELLITES
FROM WA5QGD FORT WORTH,TX July 7, 2005
Send SUBSCRIBE KEPS/UNSUBSCRIBE KEPS to majordomo@amsat.org only
BID: ORB05188.M
TO ALL RADIO AMATEURS BT

Satellite: WO-39
Catalog number: 26061
Epoch time:      03303.41062303
Element set:     973
Inclination:      100.1904 deg
RA of node:       047.3011 deg
Eccentricity:    0.0034615
Arg of perigee:   281.6926 deg
Mean anomaly:     078.0378 deg
Mean motion:   14.38082544 rev/day
Decay rate:      2.252e-05 rev/day^2
Epoch rev:           19701
Checksum:              268

Satellite: NO-45
Catalog number: 26932
Epoch time:      05187.52837547
Element set:      72
Inclination:      067.0561 deg
RA of node:       177.6395 deg
Eccentricity:    0.0006475
Arg of perigee:   243.3825 deg
Mean anomaly:     116.6626 deg
Mean motion:   14.29491349 rev/day
Decay rate:        3.5e-07 rev/day^2
Epoch rev:           19656
Checksum:              334

Satellite: UARS
Catalog number: 21701
Epoch time:      05187.87216789
Element set:    0476
Inclination:      056.9797 deg
RA of node:       110.2537 deg
Eccentricity:    0.0005638
Arg of perigee:   080.9459 deg
Mean anomaly:     279.2216 deg
Mean motion:   15.03853590 rev/day
Decay rate:       -8.4e-07 rev/day^2
Epoch rev:           75645
Checksum:              334

Satellite: PO-34
Catalog number: 25520
Epoch time:      05188.18579849
Element set:     220
Inclination:      028.4576 deg
RA of node:       178.5867 deg
Eccentricity:    0.0005773
Arg of perigee:   086.7462 deg
Mean anomaly:     273.3795 deg
Mean motion:   15.16336654 rev/day
Decay rate:      1.020e-05 rev/day^2
Epoch rev:           36962
Checksum:              341

Satellite: OO-38
Catalog number: 26063
Epoch time:      05188.19753270
Element set:     383
Inclination:      100.2155 deg
RA of node:       051.9013 deg
Eccentricity:    0.0036958
Arg of perigee:   359.5724 deg
Mean anomaly:     000.5414 deg
Mean motion:   14.35724768 rev/day
Decay rate:        4.9e-07 rev/day^2
Epoch rev:           28516
Checksum:              304

Satellite: HUBBLE
Catalog number: 20580
Epoch time:      05188.22185692
Element set:     377
Inclination:      028.4657 deg
RA of node:       138.2303 deg
Eccentricity:    0.0004050
Arg of perigee:   122.9217 deg
Mean anomaly:     237.1761 deg
Mean motion:   14.99764597 rev/day
Decay rate:       6.30e-06 rev/day^2
Epoch rev:           63325
Checksum:              299

Satellite: ISS
Catalog number: 25544
Epoch time:      05188.62268519
Element set:     857
Inclination:      051.6439 deg
RA of node:       156.1766 deg
Eccentricity:    0.0003390
Arg of perigee:   093.8378 deg
Mean anomaly:     251.1741 deg
Mean motion:   15.71408319 rev/day
Decay rate:     1.5741e-04 rev/day^2
Epoch rev:           37889
Checksum:              334

/EX

--- ViaMAIL!/WC v1.60d
 * Origin: Chowdanet (401-331-0615) telnet://chowdanet.com  (1:323/120)